Back to catalog

STARLINK-33902

AliveCommunicationsVLEO
NORAD 65920·PAYLOAD·🇺🇸 United States

Launched Oct 8, 2025 from Vandenberg Space Force Base

Loading…

Next Passes (next 24 hours)

TLE

FreshSource: CelesTrak SupGP

Epoch: Sep 14, 2026, 20:53 UTC

1 65920C 25225L   26257.87062500  .00014400  00000+0  42628-3 0  2578
2 65920  53.1591   3.9224 0001140  92.1429 328.8145 15.34323566    11

Track STARLINK-33902 in real time with AllMySat

Download on the App Store